Location: Niverville
(49.6028°N, 97.0419°W)
Time: 21:31:00
(UTC-06:00)

ISS - All Passes

Search period start: 28 November 2014 00:00
Search period end: 08 December 2014 00:00
Orbit: 407 x 417 km, 51.6° (Epoch: 29 November)

Date Brightness Start Highest point End Pass type
(mag) Time Alt. Az. Time Alt. Az. Time Alt. Az.
28 Nov - 00:03:51 10° SW 00:07:03 50° SSE 00:10:15 10° ENE night (unlit)
28 Nov - 01:40:25 10° W 01:43:41 63° N 01:46:58 10° ENE night (unlit)
28 Nov - 03:17:14 10° WNW 03:20:32 71° NNE 03:23:49 10° E night (unlit)
28 Nov - 04:53:59 10° W 04:57:04 37° SSW 05:00:08 10° SE visible
28 Nov - 23:14:17 10° SSW 23:17:17 33° SSE 23:20:18 10° E night (unlit)
29 Nov - 00:50:30 10° W 00:53:47 74° NNW 00:57:05 10° ENE night (unlit)
29 Nov - 02:27:21 10° WNW 02:30:37 61° N 02:33:54 10° E night (unlit)
29 Nov - 04:04:03 10° WNW 04:07:17 55° SSW 04:10:31 10° SE night (unlit)
29 Nov - 05:42:00 10° WSW 05:43:21 12° SW 05:44:43 10° SSW visible
29 Nov - 22:24:56 10° SSW 22:27:33 22° SE 22:30:11 10° E night (unlit)
30 Nov - 00:00:35 10° WSW 00:03:53 87° SSE 00:07:11 10° ENE night (unlit)
30 Nov - 01:37:25 10° W 01:40:40 58° N 01:43:56 10° E night (unlit)
30 Nov - 03:14:08 10° WNW 03:17:26 78° SSW 03:20:43 10° ESE night (unlit)
30 Nov - 04:51:17 10° W 04:53:41 19° SW 04:56:05 10° S visible
30 Nov - 21:35:57 10° S 21:37:50 15° SE 21:39:43 10° ESE night (unlit)
30 Nov - 23:10:43 10° WSW 23:13:58 64° SSE 23:17:14 10° ENE night (unlit)
01 Dec - 00:47:25 10° W 00:50:41 59° N 00:53:56 10° ENE night (unlit)
01 Dec - 02:24:12 10° WNW 02:27:30 81° NNE 02:30:48 10° ESE night (unlit)
01 Dec - 04:01:02 10° W 04:03:56 28° SW 04:06:48 10° SSE night (unlit)
01 Dec - 22:20:56 10° SW 22:24:05 43° SSE 22:27:14 10° ENE night (unlit)
01 Dec - 23:57:23 10° W 00:00:40 66° N 00:03:57 10° ENE night (unlit)
02 Dec - 01:34:13 10° WNW 01:37:30 66° N 01:40:47 10° E night (unlit)
02 Dec - 03:10:56 10° WNW 03:14:05 42° SSW 03:17:13 10° SE night (unlit)
02 Dec - 21:31:18 10° SSW 21:34:12 29° SE 21:37:06 10° E night (unlit)
02 Dec - 23:07:20 10° WSW 23:10:38 80° NNW 23:13:56 10° ENE night (unlit)
03 Dec - 00:44:11 10° WNW 00:47:27 59° N 00:50:43 10° E night (unlit)
03 Dec - 02:20:53 10° WNW 02:24:09 63° SSW 02:27:24 10° ESE night (unlit)
03 Dec - 03:58:26 10° WSW 04:00:16 14° SW 04:02:07 10° S night (unlit)
03 Dec - 20:41:55 10° S 20:44:20 19° SE 20:46:46 10° E night (unlit)
03 Dec - 22:17:18 10° WSW 22:20:36 79° SSE 22:23:54 10° ENE night (unlit)
03 Dec - 23:54:06 10° W 23:57:21 58° N 00:00:37 10° E night (unlit)
04 Dec - 01:30:50 10° WNW 01:34:08 86° SSW 01:37:26 10° ESE night (unlit)
04 Dec - 03:07:50 10° W 03:10:27 22° SW 03:13:03 10° SSE night (unlit)
04 Dec - 19:53:06 10° SSE 19:54:30 12° SE 19:55:55 10° ESE night (unlit)
04 Dec - 21:27:20 10° SW 21:30:34 56° SSE 21:33:49 10° ENE night (unlit)
04 Dec - 23:03:57 10° W 23:07:14 61° N 23:10:30 10° ENE night (unlit)
05 Dec - 00:40:45 10° WNW 00:44:03 74° NNE 00:47:20 10° E night (unlit)
05 Dec - 02:17:31 10° W 02:20:32 33° SSW 02:23:31 10° SSE night (unlit)
05 Dec - 20:37:29 10° SW 20:40:33 37° SSE 20:43:38 10° E night (unlit)
05 Dec - 22:13:47 10° W 22:17:05 70° NNW 22:20:22 10° ENE night (unlit)
05 Dec - 23:50:38 10° WNW 23:53:54 63° N 23:57:11 10° E night (unlit)
06 Dec - 01:27:19 10° WNW 01:30:31 49° SSW 01:33:43 10° SE night (unlit)
06 Dec - 03:05:49 10° WSW 03:06:31 11° SW 03:07:13 10° SSW night (unlit)
06 Dec - 19:47:48 10° SSW 19:50:34 25° SE 19:53:19 10° E visible
06 Dec - 21:23:37 10° WSW 21:26:55 87° NNW 21:30:14 10° ENE night (unlit)
06 Dec - 23:00:27 10° WNW 23:03:43 58° N 23:06:58 10° E night (unlit)
07 Dec - 00:37:09 10° WNW 00:40:26 72° SSW 00:43:42 10° ESE night (unlit)
07 Dec - 02:14:25 10° W 02:16:37 17° SW 02:18:49 10° S night (unlit)
07 Dec - 18:58:27 10° S 19:00:35 16° SE 19:02:44 10° E visible
07 Dec - 20:33:29 10° WSW 20:36:46 70° SSE 20:40:03 10° ENE night (unlit)
07 Dec - 22:10:13 10° W 22:13:29 58° N 22:16:44 10° ENE night (unlit)
07 Dec - 23:46:58 10° WNW 23:50:16 85° NNE 23:53:34 10° ESE night (unlit)
